Hourly Data Report for September 22, 2017

All times are specified in Local Standard Time (LST). Add 1 hour to adjust for Daylight Saving Time where and when it is observed.

TORONTO INTL A
ONTARIO

43°40'36.000" N
79°37'50.000" W
173.40 m
6158731
71624
YYZ

Download Data

Hourly Data (September 2017)
Hourly Data Report for September 22, 2017
Temp Definition
°C
Dew Point Temp Definition
°C
Rel Hum Definition
%
Wind Dir Definition
10's deg

Wind Spd Definition
km/h
Visibility Definition
km
Stn Press Definition
kPa
Hmdx Definition


Wind Chill Definition


Weather Definition


TIME
00:00 Legend Double Dagger 20.9 16.4 75 36 1 24.1 99.93 26   LegendNANA
01:00 Legend Double Dagger 19.8 15.8 77 5 5 24.1 99.94     Clear
02:00 Legend Double Dagger 19.4 16.0 81 1 6 24.1 99.95     LegendNANA
03:00 Legend Double Dagger 18.8 15.7 82 5 4 24.1 99.92     LegendNANA
04:00 Legend Double Dagger 17.4 15.0 86 32 3 24.1 99.96     Clear
05:00 Legend Double Dagger 16.9 14.8 87 31 5 24.1 100.00     LegendNANA
06:00 Legend Double Dagger 17.8 15.3 85 4 7 24.1 100.04     LegendNANA
07:00 Legend Double Dagger 18.1 15.6 85 36 2 24.1 100.05     Mainly Clear
08:00 Legend Double Dagger 21.2 16.5 74 36 2 24.1 100.06 26   LegendNANA
09:00 Legend Double Dagger 23.7 16.0 62 19 6 24.1 100.06 28   LegendNANA
10:00 Legend Double Dagger 25.0 16.4 58 9 7 24.1 100.05 30   Mainly Clear
11:00 Legend Double Dagger 25.8 15.8 54 15 12 24.1 100.04 30   LegendNANA
12:00 Legend Double Dagger 27.0 13.9 44 13 12 24.1 100.02 30   LegendNANA
13:00 Legend Double Dagger 26.5 14.8 48 13 13 24.1 99.99 30   Mostly Cloudy
14:00 Legend Double Dagger 26.5 14.4 47 11 17 24.1 99.94 30   LegendNANA
15:00 Legend Double Dagger 25.8 11.9 41 14 14 24.1 99.90 28   LegendNANA
16:00 Legend Double Dagger 26.0 11.6 40 16 9 24.1 99.84 28   Mainly Clear
17:00 Legend Double Dagger 24.6 11.0 42 15 11 24.1 99.84 26   LegendNANA
18:00 Legend Double Dagger 23.3 11.8 48 17 6 24.1 99.87 25   LegendNANA
19:00 Legend Double Dagger 22.6 11.4 49 15 6 24.1 99.83 25   Mainly Clear
20:00 Legend Double Dagger 22.1 11.3 50 17 3 24.1 99.82     LegendNANA
21:00 Legend Double Dagger 21.8 9.7 46 17 4 24.1 99.83     LegendNANA
22:00 Legend Double Dagger 22.2 9.0 42 32 3 24.1 99.91     Mainly Clear
23:00 Legend Double Dagger 20.6 9.8 49 28 8 24.1 99.84     LegendNANA

Notes on Data Quality.

Legend

  • E = Estimated
  • M = Missing
  • NA = Not Available
  • ‡ = Partner data that is not subject to review by the National Climate Archives
Date modified: